カタログに戻る

THORAD AGENA D DEB

運用中PO
NORAD 4753·DEBRIS·🇺🇸 United States

打ち上げ Apr 8, 1970 から Vandenberg Space Force Base

Loading…

次のパス

TLE

Source: Space-Track
1 04753U 70025DB  26230.29844580  .00000868  00000-0  81126-3 0  9999
2 04753  99.9983   5.4669 0008581 147.2272 212.9414 13.85032089811445

AllMySatでTHORAD AGENA D DEBをリアルタイム追跡

Download on the App Store